This is the latest recevied weather packets stored in our database for station/object WW6Q. If no packets are shown the sender has not sent any weather packets the latest 10 day(s).
| Time | Temp. | Humidity | Pressure | Rain* | Wind** | Luminosity | Snow |
|---|---|---|---|---|---|---|---|
| 1787968160 | 17.22° C | 94% | 1020.5 hPa | 0 mm | - | 0 W/m² | - |
| 1787967859 | 17.22° C | 94% | 1020.4 hPa | 0 mm | - | 0 W/m² | - |
| 1787967557 | 17.22° C | 92% | 1020.4 hPa | 0 mm | - | 0 W/m² | - |
| 1787967257 | 17.78° C | 91% | 1020.3 hPa | 0 mm | - | 0 W/m² | - |
| 1787966953 | 17.78° C | 91% | 1020.4 hPa | 0 mm | - | 0 W/m² | - |
| 1787966657 | 17.78° C | 90% | 1020.2 hPa | 0 mm | - | 0 W/m² | - |
| 1787966349 | 17.78° C | 89% | 1020.2 hPa | 0 mm | - | 0 W/m² | - |
| 1787966044 | 17.78° C | 89% | 1020.1 hPa | 0 mm | - | 0 W/m² | - |
| 1787965744 | 18.33° C | 87% | 1020.2 hPa | 0 mm | - | 0 W/m² | - |
| 1787965443 | 18.33° C | 86% | 1019.8 hPa | 0 mm | - | 0 W/m² | - |
| 1787965142 | 18.89° C | 84% | 1019.7 hPa | 0 mm | - | 0 W/m² | - |
| 1787964838 | 18.89° C | 84% | 1019.8 hPa | 0 mm | - | 0 W/m² | - |
| 1787964533 | 19.44° C | 83% | 1019.6 hPa | 0 mm | - | 0 W/m² | - |
| 1787964228 | 20° C | 80% | 1019.7 hPa | 0 mm | - | 0 W/m² | - |
| 1787963927 | 20° C | 78% | 1019.7 hPa | 0 mm | - | 0 W/m² | - |
| 1787963622 | 20.56° C | 78% | 1019.6 hPa | 0 mm | - | 0 W/m² | - |
| 1787963317 | 20.56° C | 74% | 1019.4 hPa | 0 mm | - | 1 W/m² | - |
| 1787963017 | 21.11° C | 70% | 1019.4 hPa | 0 mm | - | 2 W/m² | - |
| 1787962711 | 21.11° C | 72% | 1019.4 hPa | 0 mm | - | 3 W/m² | - |
| 1787962411 | 21.11° C | 75% | 1019.5 hPa | 0 mm | - | 6 W/m² | - |
| 1787962110 | 21.67° C | 73% | 1019.4 hPa | 0 mm | - | 8 W/m² | - |
| 1787961804 | 21.67° C | 71% | 1019.4 hPa | 0 mm | - | 12 W/m² | - |
| 1787961503 | 21.67° C | 71% | 1019.5 hPa | 0 mm | - | 16 W/m² | - |
| 1787961203 | 22.22° C | 72% | 1019.5 hPa | 0 mm | - | 20 W/m² | - |
| 1787960902 | 22.22° C | 72% | 1019.7 hPa | 0 mm | - | 23 W/m² | - |
* Rain latest hour (hover to see other rain measurements)
** Current wind speed in m/s (hover to see current wind gust speed)